EW0609 Weather Reports


Display with metric or nautical units.
time (UTC)temp
F
wind
direction
speed
MPH
gust
MPH
rain 1hr
in
rain 24hr
in
rain mn
in
humidity
%
barometer
mb
20260504204228 85 213 9.0 19.0 0.00 0.00 0.00 21 1005.8
20260504203730 84 269 5.0 17.0 0.00 0.00 0.00 22 1005.6
20260504203228 85 202 6.0 17.0 0.00 0.00 0.00 22 1005.7
20260504202729 84 237 5.0 16.0 0.00 0.00 0.00 23 1005.8
20260504202227 85 190 5.0 17.0 0.00 0.00 0.00 23 1005.8
20260504201728 85 262 7.0 18.0 0.00 0.00 0.00 24 1005.9
20260504201228 84 276 8.0 18.0 0.00 0.00 0.00 22 1006.0
20260504200728 85 240 5.0 16.0 0.00 0.00 0.00 23 1006.0
20260504200609 85 262 8.0 16.0 0.00 0.00 0.00 21 1006.0
20260504195729 85 272 6.0 15.0 0.00 0.00 0.00 25 1006.1
20260504195230 85 250 3.0 15.0 0.00 0.00 0.00 24 1006.4
20260504194729 84 275 9.0 15.0 0.00 0.00 0.00 24 1006.5
20260504194228 84 188 6.0 17.0 0.00 0.00 0.00 25 1006.4
20260504193728 84 274 9.0 17.0 0.00 0.00 0.00 24 1006.6
20260504193229 84 292 9.0 17.0 0.00 0.00 0.00 23 1006.6
20260504192730 84 262 10.0 17.0 0.00 0.00 0.00 22 1006.8
20260504192228 84 265 2.0 16.0 0.00 0.00 0.00 24 1006.7
20260504191728 83 268 7.0 16.0 0.00 0.00 0.00 22 1006.8
20260504191229 84 279 10.0 17.0 0.00 0.00 0.00 23 1006.9
20260504190728 84 243 7.0 17.0 0.00 0.00 0.00 23 1006.8
20260504190230 84 296 4.0 16.0 0.00 0.00 0.00 22 1006.9
20260504185727 84 219 8.0 16.0 0.00 0.00 0.00 23 1007.0
20260504185229 84 262 6.0 16.0 0.00 0.00 0.00 24 1006.9
20260504184729 84 228 8.0 15.0 0.00 0.00 0.00 25 1007.1
20260504184230 84 228 7.0 16.0 0.00 0.00 0.00 24 1007.2
20260504184113 83 228 8.0 17.0 0.00 0.00 0.00 25 1007.4
20260504183229 84 231 9.0 17.0 0.00 0.00 0.00 24 1007.5
20260504182728 84 257 8.0 20.0 0.00 0.00 0.00 24 1007.6
20260504182227 84 305 9.0 20.0 0.00 0.00 0.00 22 1007.8
20260504181728 84 252 7.0 16.0 0.00 0.00 0.00 24 1007.7
20260504181227 84 268 6.0 14.0 0.00 0.00 0.00 24 1007.7
20260504180728 84 289 8.0 14.0 0.00 0.00 0.00 24 1007.8
20260504180228 84 289 4.0 13.0 0.00 0.00 0.00 25 1007.9
20260504175729 84 261 7.0 14.0 0.00 0.00 0.00 25 1008.0
20260504175227 84 219 8.0 15.0 0.00 0.00 0.00 25 1008.0
20260504174728 83 266 7.0 19.0 0.00 0.00 0.00 24 1008.1
20260504174621 83 290 6.0 19.0 0.00 0.00 0.00 25 1008.3
20260504173728 83 262 7.0 15.0 0.00 0.00 0.00 24 1008.4
20260504173227 84 316 6.0 18.0 0.00 0.00 0.00 24 1008.3
20260504172730 84 353 6.0 18.0 0.00 0.00 0.00 24 1008.5
20260504172229 83 305 7.0 16.0 0.00 0.00 0.00 24 1008.6
20260504171728 83 276 7.0 17.0 0.00 0.00 0.00 25 1008.5
20260504171228 83 278 10.0 17.0 0.00 0.00 0.00 25 1008.6
20260504171118 83 279 9.0 20.0 0.00 0.00 0.00 24 1008.6
20260504170229 83 265 7.0 20.0 0.00 0.00 0.00 25 1008.8
20260504160228 80 299 5.0 12.0 0.00 0.00 0.00 29 1009.0
20260504150730 74 275 6.0 13.0 0.00 0.00 0.00 38 1009.4
20260504150228 73 281 6.0 13.0 0.00 0.00 0.00 40 1009.5
20260504150117 72 289 6.0 14.0 0.00 0.00 0.00 41 1009.4
20260504141227 66 228 5.0 10.0 0.00 0.00 0.00 53 1009.5
20260504140728 66 235 4.0 12.0 0.00 0.00 0.00 53 1009.4
20260504140226 65 262 5.0 12.0 0.00 0.00 0.00 53 1009.1
20260504130727 62 230 5.0 10.0 0.00 0.00 0.00 57 1008.9
20260504130228 61 262 6.0 14.0 0.00 0.00 0.00 57 1008.8
20260504120119 60 226 7.0 14.0 0.00 0.00 0.00 61 1008.3
20260504110227 60 228 8.0 15.0 0.00 0.00 0.00 61 1008.3
20260504110124 59 202 6.0 15.0 0.00 0.00 0.00 61 1008.1
20260504100228 59 226 6.0 12.0 0.00 0.00 0.00 61 1008.7
20260504081727 62 221 7.0 15.0 0.00 0.00 0.00 54 1009.4
20260504081228 62 221 7.0 20.0 0.00 0.00 0.00 54 1009.4
20260504080728 62 210 7.0 20.0 0.00 0.00 0.00 53 1009.5
20260504080227 62 269 7.0 18.0 0.00 0.00 0.00 53 1009.5
20260504080107 62 223 7.0 18.0 0.00 0.00 0.00 53 1009.5
20260504070228 61 224 6.0 11.0 0.00 0.00 0.00 51 1010.5
20260504060227 63 192 8.0 15.0 0.00 0.00 0.00 46 1011.0
20260504060120 63 207 6.0 14.0 0.00 0.00 0.00 46 1011.0
20260504050726 62 175 5.0 10.0 0.00 0.00 0.00 42 1011.4
20260504050504 62 175 5.0 10.0 0.00 0.00 0.00 42 1011.5
20260504050353 62 165 5.0 10.0 0.00 0.00 0.00 42 1011.5
20260504045607 62 227 4.0 10.0 0.00 0.00 0.00 42 1011.6
20260504044728 62 224 4.0 10.0 0.00 0.00 0.00 42 1011.5
20260504044227 62 180 4.0 10.0 0.00 0.00 0.00 42 1011.6
20260504043726 62 204 4.0 9.0 0.00 0.00 0.00 42 1011.6
20260504043228 62 175 4.0 7.0 0.00 0.00 0.00 41 1011.7
20260504042726 63 162 3.0 7.0 0.00 0.00 0.00 41 1011.7
20260504042227 63 171 4.0 6.0 0.00 0.00 0.00 39 1011.7
20260504041727 64 158 3.0 6.0 0.00 0.00 0.00 39 1011.7
20260504041227 64 165 3.0 6.0 0.00 0.00 0.00 38 1011.6
20260504040726 65 161 3.0 7.0 0.00 0.00 0.00 38 1011.7
20260504040619 65 200 3.0 7.0 0.00 0.00 0.00 38 1011.8
20260504035726 65 178 2.0 6.0 0.00 0.00 0.00 38 1011.7
20260504035226 65 148 4.0 9.0 0.00 0.00 0.00 37 1011.8
20260504034727 65 159 4.0 9.0 0.00 0.00 0.00 37 1011.8
20260504034614 66 164 4.0 7.0 0.00 0.00 0.00 36 1011.9
20260504033726 67 173 4.0 7.0 0.00 0.00 0.00 36 1012.0
20260504033226 67 176 3.0 9.0 0.00 0.00 0.00 36 1011.9
20260504032726 67 233 4.0 9.0 0.00 0.00 0.00 37 1011.9
20260504032228 67 213 4.0 9.0 0.00 0.00 0.00 36 1011.8
20260504031726 67 195 4.0 9.0 0.00 0.00 0.00 36 1011.8
20260504031225 67 233 4.0 9.0 0.00 0.00 0.00 36 1011.8
20260504030726 67 202 2.0 9.0 0.00 0.00 0.00 36 1011.7
20260504030227 67 189 4.0 9.0 0.00 0.00 0.00 35 1011.7
20260504025726 68 190 3.0 9.0 0.00 0.00 0.00 35 1011.7
20260504025230 68 203 4.0 10.0 0.00 0.00 0.00 34 1011.6
20260504024728 69 206 5.0 10.0 0.00 0.00 0.00 34 1011.7
20260504024227 69 210 4.0 9.0 0.00 0.00 0.00 34 1011.6
20260504023725 69 196 3.0 9.0 0.00 0.00 0.00 34 1011.7
20260504023611 69 200 4.0 9.0 0.00 0.00 0.00 34 1011.6
20260504023106 69 214 4.0 9.0 0.00 0.00 0.00 34 1011.6
20260504022618 69 223 2.0 9.0 0.00 0.00 0.00 34 1011.5
20260504022017 70 210 4.0 9.0 0.00 0.00 0.00 33 1011.5
20260504021900 70 192 2.0 9.0 0.00 0.00 0.00 32 1011.6
20260504020725 71 202 3.0 9.0 0.00 0.00 0.00 32 1011.5
20260504020612 71 216 3.0 11.0 0.00 0.00 0.00 32 1011.5
20260504015725 71 248 4.0 11.0 0.00 0.00 0.00 32 1011.4
20260504015226 71 288 4.0 11.0 0.00 0.00 0.00 32 1011.3
20260504014726 71 223 3.0 11.0 0.00 0.00 0.00 32 1011.4
20260504014226 72 185 5.0 11.0 0.00 0.00 0.00 31 1011.4
20260504013726 72 231 5.0 9.0 0.00 0.00 0.00 31 1011.4
20260504013227 72 193 4.0 11.0 0.00 0.00 0.00 32 1011.4
20260504012726 72 212 4.0 11.0 0.00 0.00 0.00 30 1011.3
20260504012508 73 183 5.0 14.0 0.00 0.00 0.00 31 1011.3
20260504012354 73 210 5.0 14.0 0.00 0.00 0.00 30 1011.3
20260504011227 74 141 6.0 21.0 0.00 0.00 0.00 29 1011.3
20260504010728 74 243 9.0 21.0 0.00 0.00 0.00 29 1011.3
20260504010610 74 234 6.0 15.0 0.00 0.00 0.00 28 1011.4
20260504005727 74 207 7.0 15.0 0.00 0.00 0.00 29 1011.4
20260504005226 74 203 8.0 15.0 0.00 0.00 0.00 29 1011.5
20260504004728 74 241 4.0 16.0 0.00 0.00 0.00 29 1011.4
20260504004230 75 195 8.0 21.0 0.00 0.00 0.00 28 1011.4
20260504004111 75 186 8.0 21.0 0.00 0.00 0.00 29 1011.4
20260504003226 75 162 7.0 18.0 0.00 0.00 0.00 29 1011.5
20260504002727 75 103 7.0 17.0 0.00 0.00 0.00 28 1011.5
20260504002227 76 192 7.0 18.0 0.00 0.00 0.00 27 1011.5
20260504001726 76 202 9.0 19.0 0.00 0.00 0.00 27 1011.6
20260504001228 76 140 10.0 19.0 0.00 0.00 0.00 27 1011.4
20260504000726 76 293 8.0 17.0 0.00 0.00 0.00 27 1011.4
20260504000227 77 190 8.0 16.0 0.00 0.00 0.00 27 1011.6
20260503235727 77 193 10.0 17.0 0.00 0.00 0.00 26 1011.7
20260503235226 77 238 8.0 17.0 0.00 0.00 0.00 26 1011.6
20260503234725 77 226 9.0 18.0 0.00 0.00 0.00 26 1011.6
20260503234227 78 185 6.0 18.0 0.00 0.00 0.00 26 1011.6
20260503233726 78 196 6.0 18.0 0.00 0.00 0.00 24 1011.7
20260503233616 78 203 7.0 18.0 0.00 0.00 0.00 22 1011.7
20260503232727 78 306 5.0 16.0 0.00 0.00 0.00 23 1011.7
20260503232227 78 221 8.0 16.0 0.00 0.00 0.00 23 1011.7
20260503231727 78 196 6.0 19.0 0.00 0.00 0.00 24 1011.6
20260503231225 79 238 10.0 19.0 0.00 0.00 0.00 21 1011.6
20260503230725 79 217 8.0 16.0 0.00 0.00 0.00 20 1011.7
20260503230227 79 221 9.0 16.0 0.00 0.00 0.00 20 1011.7
20260503225726 79 162 6.0 17.0 0.00 0.00 0.00 21 1011.8
20260503225227 78 157 6.0 17.0 0.00 0.00 0.00 22 1012.0
20260503224728 79 206 7.0 16.0 0.00 0.00 0.00 21 1011.9
20260503224615 79 192 6.0 17.0 0.00 0.00 0.00 23 1011.9
20260503223726 79 276 9.0 18.0 0.00 0.00 0.00 23 1012.2
20260503223227 79 252 9.0 18.0 0.00 0.00 0.00 23 1012.0
20260503222726 79 161 9.0 18.0 0.00 0.00 0.00 24 1012.3
20260503222226 78 183 9.0 18.0 0.00 0.00 0.00 24 1012.4
20260503221726 79 200 8.0 18.0 0.00 0.00 0.00 23 1012.5
20260503221452 79 255 9.0 18.0 0.00 0.00 0.00 24 1012.5
20260503214726 79 227 7.0 19.0 0.00 0.00 0.00 24 1013.2
20260503214228 79 196 6.0 17.0 0.00 0.00 0.00 24 1013.0
20260503213727 78 185 9.0 16.0 0.00 0.00 0.00 25 1013.2
20260503213226 79 286 9.0 20.0 0.00 0.00 0.00 24 1013.3
20260503212727 80 209 11.0 20.0 0.00 0.00 0.00 25 1013.5
20260503212227 79 217 10.0 18.0 0.00 0.00 0.00 23 1013.4
20260503211726 79 303 9.0 18.0 0.00 0.00 0.00 25 1013.7
20260503211226 80 227 7.0 19.0 0.00 0.00 0.00 24 1013.7
20260503210726 80 213 11.0 19.0 0.00 0.00 0.00 25 1013.8
20260503210615 79 209 8.0 16.0 0.00 0.00 0.00 26 1013.8
20260503210124 80 212 6.0 16.0 0.00 0.00 0.00 25 1014.0
20260503205226 80 233 7.0 23.0 0.00 0.00 0.00 25 1014.0
20260503204725 79 190 10.0 23.0 0.00 0.00 0.00 25 1014.3